Jackpot

Texas Poker Multi Jackpot System

Kini Telah hadir Jackpot SUPER ROYAL FLUSH

Kini Telah hadir Jackpot 2000 (khusus table VIP keatas).

Ikutilah global jackpot yang tersedia di system kami, dengan system jackpot terbaru dan pertama di indonesia, anda dapat membeli jackpot dengan harga 100 rupiah saja dan menangkan hadiahnya hingga puluhan juta rupiah.

Jackpot bukanlah suatu keharusan untuk dibeli, namun kami memberikan suatu fitur tambahan untuk member tercinta dari www.aceh.poker.

Terdapat tiga pilihan harga jackpot yang bisa anda beli yaitu :100,500,1000 dan 2000(khusus table VIP Keatas) rupiah.

Hadiah dari Multi jackpot system www.aceh.poker

  1. full house x 10 harga jackpot yang anda beli.
      (contoh:anda membeli 1000 maka:1000 X10 = 10.000)
  2. four of kind x 250 harga jackpot yang anda beli
      (contoh:anda membeli 1000 maka:1000 X250 = 250.000)
  3. Straight flush x 1200
      (contoh:anda membeli 1000 maka:1000 X1200 = 1.200.000)
  4. Royal flush x 10000 harga jackpot yang anda beli
      (contoh:anda membeli 1000 maka:1000 X10000 = 10.000.000)
  5. SUPER ROYAL FLUSH x 30000 harga jackpot yang anda beli
      (contoh:anda membeli 1000 maka:1000 X30000 = 30.000.000)

Kondisi kartu

  1. full house adalah kondisi kartu dimana kartu anda dan kartu tengah dengan total 7 kartu bisa mendapatkan nilai 5 kartu dengan kombinasi 1 tris(three of kind) dan 1 pair, contoh 3 kartu 10 dan 2 kartu 5
  2. Four of kind adalah kondisi kartu dimana kartu anda dan kartu tengah dengan total 7 kartu bisa mendapatkan nilai 5 kartu dengan kombinasi 4 kartu yang sama jumlah dan 1 kartu apapun juga contoh anda mendapatkan 4 buah kartu angka 3 dan 1 kartu apapun.
  3. Staright flush adalah kondisi kartu dimana kartu anda dan kartu tengah dengan total 7 kartu bisa mendapatkan nilai 5 kartu dengan kombinasi seri / staright dengan kembang yang sama contoh : urutan kartu dari angka 5, 6, 7, 8 , 9 10 dengan kembang yg sama misalnya as hati
  4. Royal flush adalah kondisi kartu dimana kartu anda dan kartu tengah dengan total 7 kartu bisa mendapatkan nilai 5 kartu dengan kombinasi seri / staright dengan kembang yang sama tetapi kartu tersebut haruslah dimulai dari 10. contoh 10, Queen, Jack, King dan aces dengan kembang yang sama
  5. Super Royal flush adalah kondisi kartu dimana Kedua kartu anda digabung dengan 3 kartu pertama meja haruslah royal flush. contoh kartu anda 10,Queen kembang sama dan 3 kartu pertama meja adalah Jack, King dan aces dengan kembang yang sama

Demikian adalah penjelasan dari Multi Jackpot www.aceh.poker terima kasih dan selamat bermain salam hoki dari kami

Texas Poker Jackpot Winner

TOP SUPER ROYAL FLUSH
No.TanggalNamaPriceWin
123/01 14:46PLERKINGSuper Royal flush30,000,000
223/01 13:14DIDU234Super Royal flush15,000,000
323/01 10:04H4S1LAASuper Royal flush15,000,000
423/01 06:41YASA9090Super Royal flush6,000,000
523/01 06:22D10EFC15Super Royal flush1,500,000
TOP ROYAL FLUSH
No.TanggalNamaPriceWin
123/01 18:31K_SATAARRoyal flush5,000,000
223/01 18:28STUFFGODRoyal flush5,000,000
323/01 18:14SANGETEHRoyal flush10,000,000
423/01 18:03ANALIS603Royal flush2,000,000
523/01 17:48PUNGLOR99Royal flush2,000,000
TOP STRAIGHT FLUSH
No.TanggalNamaPriceWin
123/01 18:37GATEL31222Straight Flush120,000
223/01 18:35AULIA272Straight Flush1,200,000
323/01 18:32DADANG1717Straight Flush240,000
423/01 18:30ABRA96Straight Flush600,000
523/01 18:29RGW2C0U9L9Straight Flush240,000
LATEST JACKPOT
No.TanggalNamaPriceWin
123/01 18:39SUTIO1234Full House10,000
223/01 18:39BEMB3NGFull House10,000
323/01 18:39YUJDTUKYFull House5,000
423/01 18:39D9341C2CFull House5,000
523/01 18:39MANSUFull House5,000
623/01 18:39KR4T4X_00Full House1,000
723/01 18:38OMSIN50Full House1,000
823/01 18:38FADILAH190Full House2,000
923/01 18:38JHONODSFull House5,000
1023/01 18:38SIRIL_WNRFull House500
1123/01 18:38ZHOUZHIFull House2,000
1223/01 18:38MONEYUANGFull House2,000
1323/01 18:38BEDANTUM88Full House2,000
1423/01 18:38AVANDHIIFull House10,000
1523/01 18:38BANCAI2105Full House1,000
1623/01 18:38I2PJMDFull House10,000
1723/01 18:38FEI8NPD7TIFull House10,000
1823/01 18:38MEDANG88Full House10,000
1923/01 18:38XFUB3EB9LMFull House2,000
2023/01 18:38PESEK21Full House10,000
2123/01 18:38E325731BFull House2,000
2223/01 18:38FD363BFCFull House2,000
2323/01 18:38AADDACDD8Full House1,000
2423/01 18:38MULES21Full House2,000
2523/01 18:38MULYA30JTFull House2,000
2623/01 18:38CUTT31Full House2,000
2723/01 18:38AS_144Full House5,000
2823/01 18:38TEMPOER7Full House10,000
2923/01 18:38TSSIIFull House5,000
3023/01 18:38JACK855Full House2,000
3123/01 18:38LURXXFull House2,000
3223/01 18:38STRAIK93Full House2,000
3323/01 18:38BAB6F84DFull House2,000
3423/01 18:38RAYAPTANAHFull House5,000
3523/01 18:38F4F9F268Full House1,000
3623/01 18:38HONAM101Full House2,000
3723/01 18:38NMU9YH4RWKFull House1,000
3823/01 18:38WPSAVAGEFull House10,000
3923/01 18:38KEMOZ3189Full House5,000
4023/01 18:38STIE21Full House5,000
4123/01 18:38AIRRINGKIHFull House2,000
4223/01 18:38OZIE03Full House2,000
4323/01 18:38REKYY77Full House2,000
4423/01 18:38GIGI32Full House2,000
4523/01 18:38JODIAN99Full House1,000
4623/01 18:38JANET76NFull House2,000
4723/01 18:38GARDEN44Full House10,000
4823/01 18:38AS_144Full House5,000
4923/01 18:38KUNCHEN8Full House10,000
5023/01 18:38GENJI212Full House2,000

Domino Multi Jackpot System

Ikutilah global jackpot yang tersedia di system kami, dengan system jackpot terbaru dan pertama di indonesia, anda dapat membeli jackpot dengan harga 100 rupiah saja dan menangkan hadiahnya hingga puluhan juta rupiah.

Jackpot bukanlah suatu keharusan untuk dibeli, namun kami memberikan suatu fitur tambahan untuk member tercinta dari www.aceh.poker.

Terdapat tiga pilihan harga jackpot yang bisa anda beli yaitu :100,500 dan 1000 rupiah.

Hadiah dari Multi jackpot system www.aceh.poker

  1. Murni Kecil x 50 harga jackpot yang anda beli.
      (contoh:anda membeli 1000 maka:1000 X 50 = 50.000)
  2. Murni Besar x 50 harga jackpot yang anda beli
      (contoh:anda membeli 1000 maka:1000 X 50 = 50.000)
  3. BALAK x 100 harga jackpot yang anda beli
      (contoh:anda membeli 1000 maka:1000 X 100 = 100.000)
  4. ENAM DEWA x 6666 harga jackpot yang anda beli
      (contoh:anda membeli 1000 maka:1000 X 6666 = 6.666.000)

Demikian adalah penjelasan dari Multi Jackpot www.aceh.poker terima kasih dan selamat bermain salam hoki dari kami

Domino Jackpot Winner

TOP ENAM DEWA
No.TanggalNamaPriceWin
123/01 18:20JACKPOT09murni enam6,666,000
223/01 17:16SELO21murni enam6,666,000
323/01 16:07KELU88murni enam6,666,000
423/01 14:30OWBJYVFLOLmurni enam666,600
523/01 14:26DENAI88murni enam6,666,000
TOP BALAK
No.TanggalNamaPriceWin
123/01 18:38GOPELL99balak10,000
223/01 18:38THOM420balak100,000
323/01 18:37F21F2583balak10,000
423/01 18:36SANCEZ91balak10,000
523/01 18:33KALEM1980balak100,000
LATEST JACKPOT
No.TanggalNamaPriceWin
123/01 18:38GOPELL99balak10,000
223/01 18:38THOM420balak100,000
323/01 18:37PENGHULU1murni kecil25,000
423/01 18:37F21F2583balak10,000
523/01 18:36JN3OMVDIFLmurni kecil5,000
623/01 18:36SANCEZ91balak10,000
723/01 18:35ZAYN02murni besar50,000
823/01 18:34HJBAHRUMmurni kecil50,000
923/01 18:34B446C53Dmurni kecil25,000
1023/01 18:33LB883710murni besar50,000
1123/01 18:33KALEM1980balak100,000
1223/01 18:33ZU4N924murni kecil50,000
1323/01 18:33G8YBQOTVH5murni kecil50,000
1423/01 18:32DEVIYANI1murni besar50,000
1523/01 18:32OOK_66murni besar25,000
1623/01 18:29C1T4T4murni besar25,000
1723/01 18:29PURBSbalak100,000
1823/01 18:29SHASA09murni kecil5,000
1923/01 18:29ATOHIDAYATlucky9910,000
2023/01 18:29PENGHULU1murni kecil25,000
2123/01 18:28MULIAKRISbalak50,000
2223/01 18:28LEHO777lucky9950,000
2323/01 18:27BELAGUUmurni besar25,000
2423/01 18:27OSKUNbalak100,000
2523/01 18:27KLEWANG13murni kecil50,000
2623/01 18:25M4NKENTULbalak10,000
2723/01 18:24J4Y4K4Y4murni kecil25,000
2823/01 18:24JEPRIKbalak50,000
2923/01 18:22KACAU53murni kecil5,000
3023/01 18:22KAKA2288lucky9925,000
3123/01 18:20ANOD_86murni kecil5,000
3223/01 18:20TAREKU1murni kecil50,000
3323/01 18:20JACKPOT09murni enam6,666,000
3423/01 18:19HENDI456murni kecil50,000
3523/01 18:19BEKOK26murni kecil50,000
3623/01 18:18F21F2583murni kecil25,000
3723/01 18:17RYLFLSTRSbalak100,000
3823/01 18:16CHEDAFmurni besar50,000
3923/01 18:15CHEDAFmurni besar50,000
4023/01 18:15JEPRIKmurni besar25,000
4123/01 18:15RYLFLSTRSmurni kecil50,000
4223/01 18:14JOBONmurni besar25,000
4323/01 18:14SIJONN99murni kecil50,000
4423/01 18:14J1010murni kecil50,000
4523/01 18:14GIRIAP17murni kecil25,000
4623/01 18:13LATONGImurni besar50,000
4723/01 18:13JIAB54murni kecil5,000
4823/01 18:13UPXRX24XXQmurni kecil25,000
4923/01 18:13ETJDAYmurni kecil50,000
5023/01 18:13RAIS0401murni besar25,000

Ceme Multi Jackpot System

Jackpot dilihat dari gabungan kartu pemain dengan kartu bandar. Bandar harus membeli jackpot sebanyak jumlah player yang sedang duduk. Sebagai contoh bila terdapat 3 pemain duduk bermain, dan bandar memutuskan untuk membeli jackpot Rp 1.000, maka pada periode tersebut bandar akan membeli jackpot sebanyak 3xRp1.000 = Rp3.000.

Jackpot bukanlah suatu keharusan untuk dibeli, namun kami memberikan suatu fitur tambahan untuk member tercinta dari www.aceh.poker.

Terdapat tiga pilihan harga jackpot yang bisa anda beli yaitu :100,500 dan 1000 rupiah.

Hadiah dari Multi jackpot system www.aceh.poker

  1. Murni Kecil x 50 harga jackpot yang anda beli.
      (contoh:anda membeli 1000 maka:1000 X 50 = 50.000)
  2. Murni Besar x 50 harga jackpot yang anda beli
      (contoh:anda membeli 1000 maka:1000 X 50 = 50.000)
  3. BALAK x 200 harga jackpot yang anda beli
      (contoh:anda membeli 1000 maka:1000 X 200 = 200.000)
  4. ENAM DEWA x 6666 harga jackpot yang anda beli
      (contoh:anda membeli 1000 maka:1000 X 6666 = 6.666.000)

Demikian adalah penjelasan dari Multi Jackpot www.aceh.poker terima kasih dan selamat bermain salam hoki dari kami

Ceme Jackpot Winner

TOP ENAM DEWA
No.TanggalNamaPriceWin
123/01 18:29UMARR26murni enam666,600
223/01 18:17CHENTINI75murni enam666,600
323/01 18:17DZIKRA99murni enam666,600
423/01 18:11KONCIEET99murni enam6,666,000
523/01 18:11COKISmurni enam666,600
TOP BALAK
No.TanggalNamaPriceWin
123/01 18:38MARELANbalak20,000
223/01 18:38MBAHJOYOObalak100,000
323/01 18:38PAKDEL69balak200,000
423/01 18:38RIZKY1984balak200,000
523/01 18:37KIUGENEPbalak200,000
LATEST JACKPOT
No.TanggalNamaPriceWin
123/01 18:39BXDNLEOQ9Jmurni besar25,000
223/01 18:39AADRAAA849murni besar25,000
323/01 18:39SAKTI57murni kecil50,000
423/01 18:38DM187930murni kecil50,000
523/01 18:38USTADZAmurni kecil5,000
623/01 18:38MARELANbalak20,000
723/01 18:38MBAHJOYOObalak100,000
823/01 18:38PAKDEL69balak200,000
923/01 18:38NGX93murni besar50,000
1023/01 18:38NGX93murni besar50,000
1123/01 18:38MILDREDmurni kecil50,000
1223/01 18:38RJV14murni kecil50,000
1323/01 18:38RIZKY1984balak200,000
1423/01 18:38DMAX05murni kecil50,000
1523/01 18:38AAOTONGXXmurni kecil25,000
1623/01 18:38RICCO88FUNmurni besar25,000
1723/01 18:37KYDOESKI21murni besar5,000
1823/01 18:37KIUGENEPbalak200,000
1923/01 18:37A13HIEmurni kecil25,000
2023/01 18:37ZANU212murni besar5,000
2123/01 18:37SLT22murni besar50,000
2223/01 18:37DMAX05murni kecil50,000
2323/01 18:37AKBARMOMOTmurni kecil25,000
2423/01 18:36PAKDEL69balak200,000
2523/01 18:36TISON1234murni kecil50,000
2623/01 18:36EXCAWIKA01murni kecil50,000
2723/01 18:36ASEPB3D09murni kecil50,000
2823/01 18:36DAJAL0358murni kecil50,000
2923/01 18:35BAGILAH99murni kecil25,000
3023/01 18:35RETTRO99balak20,000
3123/01 18:35SLSAHmurni kecil5,000
3223/01 18:35RINJA2murni besar50,000
3323/01 18:35KANC1L04murni besar50,000
3423/01 18:35SAKTI57murni kecil50,000
3523/01 18:35DIK4411murni kecil50,000
3623/01 18:34E1241Qmurni kecil50,000
3723/01 18:34CATURRINGOmurni kecil25,000
3823/01 18:34TISON1234murni kecil50,000
3923/01 18:34YUHUUUU06balak200,000
4023/01 18:34VANHImurni besar50,000
4123/01 18:34KANTONG11murni kecil5,000
4223/01 18:34GUARD45murni kecil25,000
4323/01 18:34S4DAMmurni kecil50,000
4423/01 18:34KANDANG12murni kecil50,000
4523/01 18:33SXJ1GTEAVYmurni kecil50,000
4623/01 18:33BEAT4993murni kecil5,000
4723/01 18:33RIZ0202murni kecil25,000
4823/01 18:33OFEYJAmurni besar5,000
4923/01 18:33QIANQQmurni kecil5,000
5023/01 18:33KARSO1234murni kecil50,000